DLH578X EDDM-FAOR

Flight info

Callsign DLH578X
Flight time N/A
Altitude 37000
Route TURBU7S TURBU Y107 TOBSO DCT BAKOR DCT VESAL DCT VIC DCT KOPER DCT TINTO DCT BULAR DCT ABDAB UL44 TUC/N0484F380 UP161 EBA/N0482F390 UG362 BARKA UA605 DJA UB730 DIR UA607 FL/N0484F410 UM731 RUDAS UQ25 ITROL UQ44 AVAGO DCT
Aircraft A359/H-SDE2E3GHIJ1J3J4J5M1P2RWXYZ/LB1D1

Departure

Time N/A
Airport Munich Airport (EDDM)

Arrival

Time 2026-05-04 04:47
Airport O.R. Tambo International Airport (FAOR)
Time Latitude Longitude Altitude Speed Heading
2026-05-03 23:13 15.86679 13.86282 38833 ft 494 kts 167°
2026-05-03 23:13 15.83401 13.87343 38833 ft 493 kts 167°
2026-05-03 23:14 15.76858 13.89472 38845 ft 493 kts 167°
2026-05-03 23:14 15.70320 13.91615 38832 ft 493 kts 167°
2026-05-03 23:15 15.63781 13.93765 38833 ft 493 kts 167°
2026-05-03 23:15 15.57243 13.95914 38838 ft 493 kts 167°
2026-05-03 23:16 15.50704 13.98061 38840 ft 493 kts 166°
2026-05-03 23:16 15.44162 14.00207 38827 ft 493 kts 166°
2026-05-03 23:17 15.37620 14.02352 38836 ft 493 kts 166°
2026-05-03 23:17 15.31119 14.04482 38832 ft 493 kts 166°
2026-05-03 23:18 15.24577 14.06624 38829 ft 493 kts 166°
2026-05-03 23:18 15.18034 14.08764 38821 ft 493 kts 166°
2026-05-03 23:19 15.11493 14.10903 38824 ft 493 kts 166°
2026-05-03 23:19 15.04946 14.13043 38819 ft 493 kts 166°
2026-05-03 23:20 14.98402 14.15179 38826 ft 493 kts 166°
2026-05-03 23:20 14.91856 14.17315 38817 ft 493 kts 166°
2026-05-03 23:21 14.85310 14.19451 38820 ft 493 kts 166°
2026-05-03 23:21 14.78768 14.21583 38815 ft 493 kts 166°
2026-05-03 23:22 14.68964 14.24776 38817 ft 492 kts 166°
2026-05-03 23:22 14.62432 14.26902 38812 ft 492 kts 166°
2026-05-03 23:23 14.55899 14.29027 38816 ft 492 kts 166°
2026-05-03 23:23 14.49366 14.31150 38820 ft 492 kts 166°
2026-05-03 23:24 14.42842 14.33269 38812 ft 491 kts 166°
2026-05-03 23:24 14.36331 14.35370 38817 ft 490 kts 167°
2026-05-03 23:25 14.29809 14.37395 38814 ft 490 kts 167°
2026-05-03 23:25 14.23325 14.39392 38813 ft 490 kts 167°
2026-05-03 23:26 14.16798 14.41412 38808 ft 490 kts 167°
2026-05-03 23:26 14.10271 14.43438 38810 ft 490 kts 167°
2026-05-03 23:27 14.03748 14.45465 38816 ft 490 kts 167°
2026-05-03 23:27 13.97224 14.47490 38818 ft 490 kts 167°
2026-05-03 23:28 13.90698 14.49514 38818 ft 490 kts 167°
2026-05-03 23:28 13.84173 14.51536 38813 ft 490 kts 167°
2026-05-03 23:29 13.77647 14.53557 38810 ft 490 kts 167°
2026-05-03 23:29 13.71171 14.55562 38822 ft 489 kts 167°
2026-05-03 23:30 13.64665 14.57575 38815 ft 488 kts 167°
2026-05-03 23:30 13.58159 14.59587 38818 ft 488 kts 167°
2026-05-03 23:31 13.51653 14.61597 38825 ft 488 kts 167°
2026-05-03 23:31 13.45147 14.63607 38821 ft 488 kts 167°
2026-05-03 23:32 13.38640 14.65615 38817 ft 487 kts 166°
2026-05-03 23:32 13.32160 14.67615 38820 ft 486 kts 166°
2026-05-03 23:33 13.25683 14.69612 38819 ft 486 kts 166°
2026-05-03 23:33 13.19206 14.71608 38825 ft 486 kts 166°
2026-05-03 23:34 13.12731 14.73602 38828 ft 486 kts 166°
2026-05-03 23:34 13.06257 14.75595 38815 ft 486 kts 166°
2026-05-03 23:35 12.99778 14.77587 38827 ft 486 kts 166°
2026-05-03 23:35 12.93300 14.79580 38824 ft 486 kts 166°
2026-05-03 23:36 12.86819 14.81572 38820 ft 486 kts 166°
2026-05-03 23:36 12.80337 14.83563 38819 ft 486 kts 166°
2026-05-03 23:37 12.73856 14.85552 38823 ft 486 kts 166°
2026-05-03 23:37 12.67418 14.87528 38816 ft 487 kts 166°
2026-05-03 23:38 12.60930 14.89517 38821 ft 487 kts 166°
2026-05-03 23:38 12.54436 14.91508 38823 ft 487 kts 166°
2026-05-03 23:39 12.47937 14.93499 38816 ft 488 kts 166°
2026-05-03 23:39 12.41437 14.95489 38812 ft 488 kts 166°
2026-05-03 23:40 12.34933 14.97479 38821 ft 488 kts 166°
2026-05-03 23:40 12.29481 14.99146 38813 ft 488 kts 166°
2026-05-03 23:41 12.23012 15.01124 38826 ft 489 kts 166°
2026-05-03 23:41 12.16497 15.03115 38828 ft 489 kts 166°
2026-05-03 23:42 12.12140 15.04441 38825 ft 488 kts 166°
2026-05-03 23:42 12.02793 15.07029 38827 ft 488 kts 168°
2026-05-03 23:43 11.96229 15.08805 38823 ft 489 kts 167°
2026-05-03 23:43 11.89653 15.10608 38819 ft 489 kts 167°
2026-05-03 23:44 11.83079 15.12424 38816 ft 489 kts 167°
2026-05-03 23:44 11.76508 15.14241 38815 ft 489 kts 167°
2026-05-03 23:45 11.69931 15.16058 38816 ft 490 kts 167°
2026-05-03 23:45 11.63355 15.17872 38823 ft 490 kts 167°
2026-05-03 23:46 11.56772 15.19688 38820 ft 491 kts 167°
2026-05-03 23:46 11.50177 15.21506 38820 ft 491 kts 167°
2026-05-03 23:47 11.43586 15.23322 38825 ft 491 kts 167°
2026-05-03 23:47 11.37036 15.25126 38816 ft 491 kts 167°
2026-05-03 23:48 11.30442 15.26942 38813 ft 491 kts 167°
2026-05-03 23:48 11.23847 15.28756 38816 ft 491 kts 167°
2026-05-03 23:49 11.17239 15.30573 38812 ft 492 kts 167°
2026-05-03 23:49 11.10624 15.32392 38817 ft 492 kts 167°
2026-05-03 23:50 11.05080 15.33915 38817 ft 492 kts 167°
2026-05-03 23:50 10.97390 15.36027 38812 ft 492 kts 167°
2026-05-03 23:51 10.90776 15.37843 38814 ft 492 kts 167°
2026-05-03 23:51 10.84160 15.39658 38817 ft 492 kts 167°
2026-05-03 23:52 10.77544 15.41472 38811 ft 492 kts 167°
2026-05-03 23:52 10.70930 15.43285 38810 ft 492 kts 167°
2026-05-03 23:53 10.64312 15.45099 38806 ft 492 kts 167°
2026-05-03 23:53 10.57698 15.46910 38813 ft 492 kts 167°
2026-05-03 23:54 10.51083 15.48721 38811 ft 492 kts 167°
2026-05-03 23:54 10.44513 15.50519 38808 ft 492 kts 167°
2026-05-03 23:55 10.37894 15.52329 38814 ft 492 kts 167°
2026-05-03 23:55 10.31281 15.54137 38816 ft 492 kts 167°
2026-05-03 23:56 10.24661 15.55946 38813 ft 492 kts 167°
2026-05-03 23:56 10.18045 15.57753 38816 ft 492 kts 167°
2026-05-03 23:57 10.11437 15.59558 38816 ft 491 kts 166°
2026-05-03 23:57 10.04841 15.61355 38818 ft 491 kts 167°
2026-05-03 23:58 9.98243 15.63152 38814 ft 491 kts 167°
2026-05-03 23:58 9.91649 15.64946 38824 ft 491 kts 166°
2026-05-03 23:59 9.85047 15.66743 38827 ft 491 kts 166°
2026-05-03 23:59 9.78437 15.68541 38822 ft 493 kts 166°
2026-05-04 00:00 9.71855 15.70331 38828 ft 493 kts 166°
2026-05-04 00:00 9.65225 15.72134 38826 ft 493 kts 166°
2026-05-04 00:01 9.58593 15.73936 38829 ft 493 kts 166°
2026-05-04 00:01 9.51958 15.75738 38834 ft 493 kts 166°
2026-05-04 00:02 9.45329 15.77538 38834 ft 493 kts 166°
2026-05-04 00:02 9.38699 15.79341 38842 ft 493 kts 166°
2026-05-04 00:03 9.33192 15.80839 38845 ft 493 kts 166°
2026-05-04 00:03 9.26559 15.82638 38835 ft 493 kts 166°
2026-05-04 00:04 9.19931 15.84437 38841 ft 493 kts 166°
2026-05-04 00:04 9.13307 15.86234 38846 ft 493 kts 166°
2026-05-04 00:05 9.06672 15.88034 38844 ft 494 kts 166°
2026-05-04 00:05 9.00026 15.89837 38838 ft 495 kts 166°
2026-05-04 00:06 8.93368 15.91642 38846 ft 495 kts 166°
2026-05-04 00:06 8.86713 15.93445 38846 ft 495 kts 166°
2026-05-04 00:07 8.80059 15.95248 38841 ft 495 kts 166°
2026-05-04 00:07 8.73405 15.97050 38853 ft 495 kts 166°
2026-05-04 00:08 8.66755 15.98850 38855 ft 495 kts 166°
2026-05-04 00:08 8.60105 16.00649 38853 ft 495 kts 166°
2026-05-04 00:09 8.53455 16.02448 38845 ft 494 kts 166°
2026-05-04 00:09 8.46808 16.04246 38858 ft 494 kts 166°
2026-05-04 00:10 8.40160 16.06043 38850 ft 494 kts 166°
2026-05-04 00:10 8.33511 16.07839 38844 ft 495 kts 166°
2026-05-04 00:11 8.26858 16.09636 38856 ft 495 kts 165°
2026-05-04 00:11 8.20206 16.11432 38852 ft 495 kts 165°
2026-05-04 00:12 8.13599 16.13216 38852 ft 495 kts 166°
2026-05-04 00:12 8.06944 16.15012 38850 ft 495 kts 165°
2026-05-04 00:13 8.00291 16.16806 38860 ft 495 kts 165°
2026-05-04 00:13 7.93636 16.18600 38856 ft 495 kts 165°
2026-05-04 00:14 7.86975 16.20394 38867 ft 495 kts 165°
2026-05-04 00:14 7.80315 16.22187 38863 ft 495 kts 165°
2026-05-04 00:15 7.73654 16.23980 38867 ft 495 kts 165°
2026-05-04 00:15 7.66994 16.25772 38866 ft 496 kts 165°
2026-05-04 00:16 7.60330 16.27564 38872 ft 495 kts 165°
2026-05-04 00:16 7.53678 16.29353 38876 ft 495 kts 165°
2026-05-04 00:17 7.47017 16.31144 38884 ft 495 kts 165°
2026-05-04 00:17 7.40354 16.32934 38897 ft 495 kts 165°
2026-05-04 00:18 7.33745 16.34710 38883 ft 495 kts 165°
2026-05-04 00:18 7.27090 16.36498 38889 ft 495 kts 165°
2026-05-04 00:19 7.20440 16.38283 38887 ft 494 kts 165°
2026-05-04 00:19 7.13799 16.40065 38901 ft 494 kts 165°
2026-05-04 00:20 7.07158 16.41847 38894 ft 494 kts 165°
2026-05-04 00:20 7.00516 16.43628 38896 ft 494 kts 165°
2026-05-04 00:21 6.93873 16.45410 38898 ft 494 kts 165°
2026-05-04 00:21 6.87237 16.47189 38897 ft 494 kts 165°
2026-05-04 00:22 6.80595 16.48969 38902 ft 494 kts 165°
2026-05-04 00:22 6.73956 16.50748 38908 ft 494 kts 165°
2026-05-04 00:23 6.67315 16.52527 38904 ft 494 kts 165°
2026-05-04 00:23 6.60674 16.54306 38903 ft 494 kts 165°
2026-05-04 00:24 6.54023 16.56086 38915 ft 494 kts 165°
2026-05-04 00:24 6.47423 16.57852 38908 ft 494 kts 165°
2026-05-04 00:25 6.40777 16.59630 38916 ft 494 kts 165°
2026-05-04 00:25 6.34126 16.61409 38920 ft 494 kts 165°
2026-05-04 00:26 6.27477 16.63188 38917 ft 494 kts 165°
2026-05-04 00:26 6.20829 16.64965 38911 ft 494 kts 165°
2026-05-04 00:27 6.14192 16.66743 38918 ft 492 kts 165°
2026-05-04 00:27 6.07583 16.68509 38923 ft 491 kts 165°
2026-05-04 00:28 6.00974 16.70274 38919 ft 491 kts 165°
2026-05-04 00:28 5.94362 16.72040 38923 ft 492 kts 165°
2026-05-04 00:29 5.87742 16.73808 38923 ft 492 kts 165°
2026-05-04 00:29 5.81122 16.75576 38926 ft 492 kts 165°
2026-05-04 00:30 5.74511 16.77341 38922 ft 491 kts 165°
2026-05-04 00:30 5.67905 16.79105 38931 ft 491 kts 165°
2026-05-04 00:31 5.61342 16.80857 38931 ft 491 kts 165°
2026-05-04 00:31 5.54738 16.82619 38927 ft 491 kts 165°
2026-05-04 00:32 5.48135 16.84381 38939 ft 491 kts 165°
2026-05-04 00:32 5.41526 16.86144 38935 ft 491 kts 165°
2026-05-04 00:33 5.31621 16.88785 38928 ft 491 kts 164°
2026-05-04 00:34 5.25019 16.90545 38940 ft 491 kts 164°
2026-05-04 00:34 5.18416 16.92305 38930 ft 491 kts 165°
2026-05-04 00:35 5.11811 16.94065 38940 ft 491 kts 164°
2026-05-04 00:35 5.05211 16.95823 38942 ft 491 kts 165°
2026-05-04 00:36 4.98608 16.97583 38940 ft 491 kts 165°
2026-05-04 00:36 4.92003 16.99341 38926 ft 491 kts 165°
2026-05-04 00:37 4.85401 17.01099 38929 ft 491 kts 165°
2026-05-04 00:37 4.78798 17.02857 38926 ft 491 kts 165°
2026-05-04 00:38 4.72239 17.04603 38939 ft 491 kts 165°
2026-05-04 00:38 4.65640 17.06359 38922 ft 491 kts 165°
2026-05-04 00:39 4.59041 17.08118 38923 ft 491 kts 164°
2026-05-04 00:39 4.52442 17.09872 38931 ft 491 kts 165°
2026-05-04 00:40 4.45838 17.11623 38918 ft 491 kts 165°
2026-05-04 00:40 4.39238 17.13374 38927 ft 491 kts 165°
2026-05-04 00:41 4.32633 17.15128 38922 ft 491 kts 165°
2026-05-04 00:41 4.26032 17.16885 38936 ft 491 kts 165°
2026-05-04 00:42 4.19429 17.18640 38934 ft 491 kts 165°
2026-05-04 00:42 4.12823 17.20395 38922 ft 491 kts 165°
2026-05-04 00:43 4.06219 17.22149 38935 ft 491 kts 165°
2026-05-04 00:43 3.99617 17.23903 38938 ft 491 kts 165°
2026-05-04 00:44 3.93007 17.25659 38926 ft 491 kts 165°
2026-05-04 00:44 3.86439 17.27404 38915 ft 492 kts 165°
2026-05-04 00:45 3.79828 17.29160 38929 ft 492 kts 165°
2026-05-04 00:45 3.73214 17.30916 38917 ft 492 kts 165°
2026-05-04 00:46 3.66605 17.32671 38915 ft 492 kts 165°
2026-05-04 00:46 3.59973 17.34431 39124 ft 493 kts 165°
2026-05-04 00:46 3.56656 17.35311 39268 ft 494 kts 165°
2026-05-04 00:47 3.53339 17.36191 39415 ft 493 kts 165°
2026-05-04 00:47 3.50021 17.37071 39552 ft 493 kts 165°
2026-05-04 00:47 3.46705 17.37951 39684 ft 493 kts 165°
2026-05-04 00:47 3.43388 17.38830 39809 ft 493 kts 165°
2026-05-04 00:48 3.40075 17.39709 39933 ft 493 kts 166°
2026-05-04 00:48 3.33429 17.41471 40100 ft 495 kts 166°
2026-05-04 00:48 3.30102 17.42353 40221 ft 495 kts 166°
2026-05-04 00:49 3.26822 17.43222 40351 ft 494 kts 166°
2026-05-04 00:49 3.23498 17.44103 40458 ft 494 kts 166°
2026-05-04 00:49 3.20171 17.44985 40569 ft 494 kts 166°
2026-05-04 00:49 3.16849 17.45866 40680 ft 494 kts 166°
2026-05-04 00:50 3.13525 17.46747 40773 ft 494 kts 166°
2026-05-04 00:50 3.06877 17.48508 40913 ft 495 kts 166°
2026-05-04 00:51 3.00226 17.50270 40909 ft 494 kts 166°
2026-05-04 00:51 2.93581 17.52030 40910 ft 494 kts 166°
2026-05-04 00:52 2.86932 17.53792 40912 ft 494 kts 166°
2026-05-04 00:52 2.80280 17.55554 40911 ft 495 kts 166°
2026-05-04 00:53 2.73625 17.57316 40910 ft 495 kts 166°
2026-05-04 00:53 2.66967 17.59079 40911 ft 495 kts 166°
2026-05-04 00:54 2.60312 17.60842 40910 ft 495 kts 166°
2026-05-04 00:54 2.54781 17.62306 40909 ft 495 kts 166°
2026-05-04 00:55 2.47049 17.64353 40906 ft 495 kts 166°
2026-05-04 00:55 2.40396 17.66114 40909 ft 495 kts 166°
2026-05-04 00:56 2.34819 17.67590 40910 ft 495 kts 166°
2026-05-04 00:56 2.28165 17.69346 40904 ft 495 kts 166°
2026-05-04 00:57 2.21555 17.71088 40907 ft 495 kts 166°
2026-05-04 00:57 2.14904 17.72849 40898 ft 494 kts 166°
2026-05-04 00:58 2.08254 17.74607 40901 ft 494 kts 166°
2026-05-04 00:58 2.01604 17.76366 40899 ft 495 kts 166°
2026-05-04 00:59 1.94946 17.78127 40898 ft 495 kts 166°
2026-05-04 00:59 1.88288 17.79888 40898 ft 495 kts 166°
2026-05-04 01:00 1.81628 17.81650 40895 ft 495 kts 166°
2026-05-04 01:00 1.74976 17.83411 40899 ft 494 kts 166°
2026-05-04 01:01 1.68335 17.85169 40899 ft 494 kts 166°
2026-05-04 01:01 1.61742 17.86915 40897 ft 493 kts 166°
2026-05-04 01:02 1.55099 17.88673 40898 ft 493 kts 166°
2026-05-04 01:02 1.48463 17.90430 40898 ft 493 kts 166°
2026-05-04 01:03 1.41826 17.92187 40897 ft 493 kts 166°
2026-05-04 01:03 1.35190 17.93944 40898 ft 493 kts 166°
2026-05-04 01:04 1.28556 17.95699 40898 ft 493 kts 166°
2026-05-04 01:04 1.21917 17.97454 40897 ft 493 kts 166°
2026-05-04 01:05 1.15282 17.99207 40897 ft 493 kts 166°
2026-05-04 01:05 1.08647 18.00961 40900 ft 493 kts 166°
2026-05-04 01:06 1.02004 18.02716 40899 ft 494 kts 166°
2026-05-04 01:06 0.95356 18.04474 40898 ft 494 kts 166°
2026-05-04 01:07 0.88709 18.06231 40898 ft 494 kts 166°
2026-05-04 01:07 0.82103 18.07977 40895 ft 494 kts 166°
2026-05-04 01:08 0.75454 18.09734 40899 ft 494 kts 166°
2026-05-04 01:08 0.68806 18.11490 40897 ft 494 kts 165°
2026-05-04 01:09 0.62153 18.13249 40898 ft 495 kts 165°
2026-05-04 01:09 0.55501 18.15012 40898 ft 495 kts 165°
2026-05-04 01:10 0.48850 18.16779 40897 ft 495 kts 165°
2026-05-04 01:10 0.42198 18.18546 40896 ft 495 kts 165°
2026-05-04 01:11 0.35546 18.20312 40894 ft 495 kts 165°
2026-05-04 01:11 0.28890 18.22080 40896 ft 495 kts 165°
2026-05-04 01:12 0.22230 18.23849 40899 ft 495 kts 165°
2026-05-04 01:12 0.15571 18.25618 40897 ft 495 kts 165°
2026-05-04 01:13 0.08913 18.27387 40899 ft 495 kts 165°
2026-05-04 01:13 0.02253 18.29141 40896 ft 495 kts 166°
2026-05-04 01:14 -0.04499 18.30506 40895 ft 495 kts 169°
2026-05-04 01:14 -0.11280 18.31705 40893 ft 495 kts 169°
2026-05-04 01:15 -0.18002 18.32944 40897 ft 494 kts 169°
2026-05-04 01:15 -0.24759 18.34239 40896 ft 495 kts 169°
2026-05-04 01:16 -0.31516 18.35551 40896 ft 495 kts 169°
2026-05-04 01:16 -0.38271 18.36863 40896 ft 494 kts 169°
2026-05-04 01:17 -0.45028 18.38173 40896 ft 494 kts 169°
2026-05-04 01:17 -0.51783 18.39481 40892 ft 494 kts 169°
2026-05-04 01:18 -0.58535 18.40789 40896 ft 494 kts 169°
2026-05-04 01:18 -0.65293 18.42098 40894 ft 494 kts 169°
2026-05-04 01:19 -0.72046 18.43405 40898 ft 494 kts 169°
2026-05-04 01:19 -0.78804 18.44714 40898 ft 495 kts 168°
2026-05-04 01:20 -0.85563 18.46023 40896 ft 495 kts 168°
2026-05-04 01:20 -0.92321 18.47333 40896 ft 495 kts 168°
2026-05-04 01:21 -0.99081 18.48642 40894 ft 495 kts 168°
2026-05-04 01:21 -1.05794 18.49943 40895 ft 495 kts 168°
2026-05-04 01:22 -1.12552 18.51252 40893 ft 494 kts 168°
2026-05-04 01:22 -1.19299 18.52559 40895 ft 494 kts 168°
2026-05-04 01:23 -1.26047 18.53866 40898 ft 494 kts 168°
2026-05-04 01:23 -1.32788 18.55172 40898 ft 494 kts 168°
2026-05-04 01:24 -1.39533 18.56479 40897 ft 494 kts 168°
2026-05-04 01:24 -1.46277 18.57786 40896 ft 494 kts 168°
2026-05-04 01:25 -1.53014 18.59092 40895 ft 493 kts 168°
2026-05-04 01:25 -1.59742 18.60396 40893 ft 493 kts 168°
2026-05-04 01:26 -1.66471 18.61700 40893 ft 493 kts 168°
2026-05-04 01:26 -1.73158 18.62996 40891 ft 493 kts 168°
2026-05-04 01:27 -1.79889 18.64301 40892 ft 493 kts 168°
2026-05-04 01:27 -1.86613 18.65604 40890 ft 492 kts 168°
2026-05-04 01:28 -1.93326 18.66906 40892 ft 491 kts 168°
2026-05-04 01:28 -2.00034 18.68207 40893 ft 491 kts 168°
2026-05-04 01:29 -2.06743 18.69508 40893 ft 491 kts 168°
2026-05-04 01:29 -2.13456 18.70809 40892 ft 491 kts 168°
2026-05-04 01:30 -2.20162 18.72110 40890 ft 491 kts 168°
2026-05-04 01:30 -2.26861 18.73409 40891 ft 490 kts 168°
2026-05-04 01:31 -2.33553 18.74707 40893 ft 490 kts 168°
2026-05-04 01:31 -2.40244 18.76006 40892 ft 490 kts 168°
2026-05-04 01:32 -2.46935 18.77304 40895 ft 490 kts 168°
2026-05-04 01:32 -2.53622 18.78601 40892 ft 490 kts 168°
2026-05-04 01:33 -2.60268 18.79891 40894 ft 489 kts 168°
2026-05-04 01:33 -2.66948 18.81187 40895 ft 489 kts 168°
2026-05-04 01:34 -2.73624 18.82483 40897 ft 489 kts 168°
2026-05-04 01:34 -2.80304 18.83782 40898 ft 489 kts 168°
2026-05-04 01:35 -2.86984 18.85080 40895 ft 489 kts 168°
2026-05-04 01:35 -2.93658 18.86378 40898 ft 488 kts 168°
2026-05-04 01:36 -3.00316 18.87673 40895 ft 487 kts 168°
2026-05-04 01:36 -3.06974 18.88968 40895 ft 487 kts 168°
2026-05-04 01:37 -3.13632 18.90263 40894 ft 487 kts 168°
2026-05-04 01:37 -3.20290 18.91559 40895 ft 487 kts 168°
2026-05-04 01:38 -3.26946 18.92853 40893 ft 487 kts 168°
2026-05-04 01:38 -3.33601 18.94148 40896 ft 487 kts 168°
2026-05-04 01:39 -3.40248 18.95442 40891 ft 487 kts 168°
2026-05-04 01:39 -3.46897 18.96736 40892 ft 487 kts 168°
2026-05-04 01:40 -3.53547 18.98031 40896 ft 487 kts 168°
2026-05-04 01:40 -3.60193 18.99325 40894 ft 487 kts 168°
2026-05-04 01:41 -3.66845 19.00620 40895 ft 487 kts 168°
2026-05-04 01:41 -3.73457 19.01908 40896 ft 487 kts 168°
2026-05-04 01:42 -3.80112 19.03205 40895 ft 487 kts 168°
2026-05-04 01:42 -3.86771 19.04502 40894 ft 487 kts 168°
2026-05-04 01:43 -3.93427 19.05802 40895 ft 487 kts 168°
2026-05-04 01:43 -4.00083 19.07100 40896 ft 487 kts 168°
2026-05-04 01:44 -4.06740 19.08395 40899 ft 487 kts 168°
2026-05-04 01:44 -4.13399 19.09692 40897 ft 487 kts 168°
2026-05-04 01:45 -4.20056 19.10990 40898 ft 487 kts 168°
2026-05-04 01:45 -4.30040 19.12937 40898 ft 487 kts 168°
2026-05-04 01:46 -4.36694 19.14235 40902 ft 487 kts 168°
2026-05-04 01:46 -4.43351 19.15534 40900 ft 487 kts 168°
2026-05-04 01:47 -4.48882 19.16614 40903 ft 487 kts 168°
2026-05-04 01:47 -4.56620 19.18124 40904 ft 487 kts 168°
2026-05-04 01:48 -4.63278 19.19424 40906 ft 487 kts 168°
2026-05-04 01:48 -4.68858 19.20513 40903 ft 487 kts 168°
2026-05-04 01:49 -4.75519 19.21814 40910 ft 488 kts 168°
2026-05-04 01:49 -4.82133 19.23106 40909 ft 488 kts 168°
2026-05-04 01:50 -4.88791 19.24406 40908 ft 488 kts 168°
2026-05-04 01:50 -4.95453 19.25708 40912 ft 488 kts 168°
2026-05-04 01:51 -5.02114 19.27010 40913 ft 488 kts 168°
2026-05-04 01:51 -5.08776 19.28313 40915 ft 488 kts 168°
2026-05-04 01:52 -5.15404 19.29780 40934 ft 487 kts 161°
2026-05-04 01:52 -5.21862 19.31853 40919 ft 487 kts 161°
2026-05-04 01:53 -5.28282 19.34033 40920 ft 487 kts 160°
2026-05-04 01:53 -5.34703 19.36233 40924 ft 487 kts 160°
2026-05-04 01:54 -5.41125 19.38423 40925 ft 488 kts 160°
2026-05-04 01:54 -5.47553 19.40609 40924 ft 488 kts 160°
2026-05-04 01:55 -5.53986 19.42794 40926 ft 488 kts 160°
2026-05-04 01:55 -5.60418 19.44980 40931 ft 488 kts 160°
2026-05-04 01:56 -5.66854 19.47168 40930 ft 488 kts 160°
2026-05-04 01:56 -5.73284 19.49354 40930 ft 488 kts 160°
2026-05-04 01:57 -5.79715 19.51542 40932 ft 488 kts 160°
2026-05-04 01:57 -5.86156 19.53713 40925 ft 489 kts 162°
2026-05-04 01:58 -5.92699 19.55413 40925 ft 489 kts 166°
2026-05-04 01:58 -5.99376 19.56942 40927 ft 489 kts 166°
2026-05-04 01:59 -6.05955 19.58508 40924 ft 489 kts 166°
2026-05-04 01:59 -6.12561 19.60140 40924 ft 489 kts 165°
2026-05-04 02:00 -6.19171 19.61793 40926 ft 490 kts 165°
2026-05-04 02:00 -6.25782 19.63447 40928 ft 490 kts 165°
2026-05-04 02:01 -6.32395 19.65100 40931 ft 490 kts 165°
2026-05-04 02:01 -6.39008 19.66751 40924 ft 490 kts 165°
2026-05-04 02:02 -6.45624 19.68403 40930 ft 490 kts 165°
2026-05-04 02:02 -6.52241 19.70056 40931 ft 490 kts 165°
2026-05-04 02:03 -6.58860 19.71710 40934 ft 490 kts 165°
2026-05-04 02:03 -6.65479 19.73365 40935 ft 490 kts 165°
2026-05-04 02:04 -6.72103 19.75021 40936 ft 490 kts 165°
2026-05-04 02:04 -6.78723 19.76676 40945 ft 490 kts 165°
2026-05-04 02:05 -6.85377 19.78197 40943 ft 490 kts 167°
2026-05-04 02:05 -6.92047 19.79639 40951 ft 490 kts 167°
2026-05-04 02:06 -6.98714 19.81099 40948 ft 490 kts 167°
2026-05-04 02:06 -7.05371 19.82577 40947 ft 490 kts 167°
2026-05-04 02:07 -7.12030 19.84064 40949 ft 490 kts 167°
2026-05-04 02:07 -7.18687 19.85551 40955 ft 490 kts 167°
2026-05-04 02:08 -7.25297 19.87029 40955 ft 490 kts 167°
2026-05-04 02:08 -7.31948 19.88539 40955 ft 490 kts 166°
2026-05-04 02:09 -7.38598 19.90059 40955 ft 490 kts 166°
2026-05-04 02:09 -7.45248 19.91577 40959 ft 490 kts 166°
2026-05-04 02:10 -7.51900 19.93093 40960 ft 490 kts 166°
2026-05-04 02:10 -7.58554 19.94610 40959 ft 490 kts 167°
2026-05-04 02:11 -7.65204 19.96125 40958 ft 490 kts 166°
2026-05-04 02:11 -7.71858 19.97643 40962 ft 490 kts 166°
2026-05-04 02:12 -7.78507 19.99160 40963 ft 490 kts 167°
2026-05-04 02:12 -7.85156 20.00677 40974 ft 490 kts 166°
2026-05-04 02:13 -7.91805 20.02195 40976 ft 489 kts 166°
2026-05-04 02:13 -7.98444 20.03711 40972 ft 489 kts 166°
2026-05-04 02:14 -8.05080 20.05243 40974 ft 489 kts 166°
2026-05-04 02:14 -8.11709 20.06784 40976 ft 489 kts 166°
2026-05-04 02:15 -8.18340 20.08326 40981 ft 489 kts 166°
2026-05-04 02:15 -8.24923 20.09856 40971 ft 488 kts 166°
2026-05-04 02:16 -8.31543 20.11394 40973 ft 488 kts 166°
2026-05-04 02:16 -8.38160 20.12932 40981 ft 488 kts 166°
2026-05-04 02:17 -8.44778 20.14471 40973 ft 488 kts 166°
2026-05-04 02:17 -8.51400 20.16011 40973 ft 488 kts 166°
2026-05-04 02:18 -8.58019 20.17551 40984 ft 488 kts 166°
2026-05-04 02:18 -8.64635 20.19091 40973 ft 488 kts 166°
2026-05-04 02:19 -8.71244 20.20630 40983 ft 487 kts 166°
2026-05-04 02:19 -8.77856 20.22170 40971 ft 487 kts 166°
2026-05-04 02:20 -8.84466 20.23710 40976 ft 488 kts 166°
2026-05-04 02:20 -8.91077 20.25251 40980 ft 488 kts 166°
2026-05-04 02:21 -8.97655 20.26785 40984 ft 489 kts 166°
2026-05-04 02:21 -9.04287 20.28332 40979 ft 489 kts 166°
2026-05-04 02:22 -9.10916 20.29879 40991 ft 489 kts 166°
2026-05-04 02:22 -9.17543 20.31426 40988 ft 489 kts 166°
2026-05-04 02:23 -9.24170 20.32973 40985 ft 489 kts 166°
2026-05-04 02:23 -9.30804 20.34523 40977 ft 489 kts 166°
2026-05-04 02:24 -9.37441 20.36075 41002 ft 490 kts 166°
2026-05-04 02:24 -9.44076 20.37626 40996 ft 490 kts 166°
2026-05-04 02:25 -9.50715 20.39179 41000 ft 490 kts 166°
2026-05-04 02:25 -9.57354 20.40732 41002 ft 490 kts 166°
2026-05-04 02:26 -9.63993 20.42286 40992 ft 490 kts 166°
2026-05-04 02:26 -9.70536 20.44166 41009 ft 489 kts 159°
2026-05-04 02:27 -9.76891 20.46614 41006 ft 489 kts 158°
2026-05-04 02:27 -9.83216 20.49160 41001 ft 489 kts 158°
2026-05-04 02:28 -9.89535 20.51714 41014 ft 489 kts 158°
2026-05-04 02:28 -9.95862 20.54260 41015 ft 489 kts 158°
2026-05-04 02:29 -10.02146 20.56783 41010 ft 489 kts 158°
2026-05-04 02:29 -10.08515 20.59340 41013 ft 489 kts 158°
2026-05-04 02:30 -10.14801 20.61865 41025 ft 489 kts 158°
2026-05-04 02:30 -10.21128 20.64408 41013 ft 489 kts 158°
2026-05-04 02:31 -10.27456 20.66953 41020 ft 489 kts 158°
2026-05-04 02:31 -10.33785 20.69499 41016 ft 489 kts 158°
2026-05-04 02:32 -10.40112 20.72045 41011 ft 489 kts 158°
2026-05-04 02:32 -10.46440 20.74593 41012 ft 489 kts 158°
2026-05-04 02:33 -10.52771 20.77143 41024 ft 489 kts 158°
2026-05-04 02:33 -10.59097 20.79692 41026 ft 489 kts 158°
2026-05-04 02:34 -10.65429 20.82245 41023 ft 490 kts 158°
2026-05-04 02:34 -10.71727 20.84785 41028 ft 490 kts 158°
2026-05-04 02:35 -10.78070 20.87344 41030 ft 491 kts 158°
2026-05-04 02:35 -10.84417 20.89907 41018 ft 491 kts 158°
2026-05-04 02:36 -10.90761 20.92469 41029 ft 491 kts 158°
2026-05-04 02:36 -10.97108 20.95033 41022 ft 491 kts 158°
2026-05-04 02:37 -11.03454 20.97599 41017 ft 491 kts 158°
2026-05-04 02:37 -11.09796 21.00164 41032 ft 491 kts 158°
2026-05-04 02:38 -11.16139 21.02731 41019 ft 491 kts 158°
2026-05-04 02:38 -11.22444 21.05283 41014 ft 491 kts 158°
2026-05-04 02:39 -11.28787 21.07852 41024 ft 491 kts 158°
2026-05-04 02:39 -11.35138 21.10425 41029 ft 491 kts 158°
2026-05-04 02:40 -11.40463 21.12584 41022 ft 491 kts 157°
2026-05-04 02:40 -11.46818 21.15161 41031 ft 492 kts 157°
2026-05-04 02:41 -11.53137 21.17726 41025 ft 492 kts 157°
2026-05-04 02:41 -11.59544 21.20327 41018 ft 492 kts 157°
2026-05-04 02:42 -11.65871 21.22896 41026 ft 493 kts 157°
2026-05-04 02:42 -11.72239 21.25484 41026 ft 493 kts 157°
2026-05-04 02:43 -11.78606 21.28073 41028 ft 493 kts 157°
2026-05-04 02:43 -11.84974 21.30663 41024 ft 493 kts 157°
2026-05-04 02:44 -11.91342 21.33255 41029 ft 493 kts 157°
2026-05-04 02:44 -11.97708 21.35847 41031 ft 492 kts 158°
2026-05-04 02:45 -12.04069 21.38439 41031 ft 492 kts 158°
2026-05-04 02:45 -12.10432 21.41032 41021 ft 492 kts 158°
2026-05-04 02:46 -12.16794 21.43626 41030 ft 492 kts 158°
2026-05-04 02:46 -12.23153 21.46221 41031 ft 492 kts 158°
2026-05-04 02:47 -12.29515 21.48818 41030 ft 492 kts 158°
2026-05-04 02:47 -12.35878 21.51417 41030 ft 492 kts 158°
2026-05-04 02:48 -12.42239 21.54017 41031 ft 492 kts 158°
2026-05-04 02:48 -12.48604 21.56619 41029 ft 492 kts 158°
2026-05-04 02:49 -12.54967 21.59222 41020 ft 492 kts 158°
2026-05-04 02:49 -12.61328 21.61826 41035 ft 492 kts 158°
2026-05-04 02:50 -12.67690 21.64431 41039 ft 492 kts 158°
2026-05-04 02:50 -12.74008 21.67020 41035 ft 492 kts 158°
2026-05-04 02:51 -12.80366 21.69627 41036 ft 492 kts 158°
2026-05-04 02:51 -12.86725 21.72235 41042 ft 492 kts 158°
2026-05-04 02:52 -12.93082 21.74844 41040 ft 492 kts 158°
2026-05-04 02:52 -12.99450 21.77421 41040 ft 492 kts 159°
2026-05-04 02:53 -13.05867 21.79852 41037 ft 492 kts 159°
2026-05-04 02:53 -13.12300 21.82267 41037 ft 492 kts 159°
2026-05-04 02:54 -13.18730 21.84707 41046 ft 493 kts 159°
2026-05-04 02:54 -13.25155 21.87161 41046 ft 493 kts 159°
2026-05-04 02:55 -13.34780 21.90845 41047 ft 492 kts 159°
2026-05-04 02:56 -13.41196 21.93301 41059 ft 492 kts 159°
2026-05-04 02:56 -13.47612 21.95758 41051 ft 492 kts 159°
2026-05-04 02:57 -13.54027 21.98216 41046 ft 492 kts 159°
2026-05-04 02:57 -13.60443 22.00678 41057 ft 492 kts 159°
2026-05-04 02:58 -13.66866 22.03128 41058 ft 492 kts 160°
2026-05-04 02:58 -13.73296 22.05566 41047 ft 492 kts 160°
2026-05-04 02:59 -13.79722 22.08008 41061 ft 492 kts 160°
2026-05-04 02:59 -13.86150 22.10455 41050 ft 492 kts 160°
2026-05-04 03:00 -13.92576 22.12904 41055 ft 493 kts 160°
2026-05-04 03:00 -13.98972 22.15343 41049 ft 494 kts 160°
2026-05-04 03:01 -14.05412 22.17800 41055 ft 494 kts 160°
2026-05-04 03:01 -14.11853 22.20259 41052 ft 494 kts 160°
2026-05-04 03:02 -14.18294 22.22720 41049 ft 494 kts 160°
2026-05-04 03:02 -14.24734 22.25182 41053 ft 494 kts 160°
2026-05-04 03:03 -14.31174 22.27645 41053 ft 494 kts 160°
2026-05-04 03:03 -14.37611 22.30108 41055 ft 494 kts 160°
2026-05-04 03:04 -14.44039 22.32599 41054 ft 494 kts 158°
2026-05-04 03:04 -14.50344 22.35413 41071 ft 494 kts 156°
2026-05-04 03:05 -14.56611 22.38328 41055 ft 494 kts 156°
2026-05-04 03:05 -14.62892 22.41205 41062 ft 494 kts 156°
2026-05-04 03:06 -14.69184 22.44047 41065 ft 494 kts 157°
2026-05-04 03:06 -14.75487 22.46884 41062 ft 494 kts 156°
2026-05-04 03:07 -14.81740 22.49701 41063 ft 494 kts 156°
2026-05-04 03:07 -14.88036 22.52541 41063 ft 493 kts 157°
2026-05-04 03:08 -14.94325 22.55381 41061 ft 493 kts 157°
2026-05-04 03:08 -15.00614 22.58222 41060 ft 493 kts 157°
2026-05-04 03:09 -15.06900 22.61064 41055 ft 493 kts 157°
2026-05-04 03:09 -15.13189 22.63909 41057 ft 493 kts 157°
2026-05-04 03:10 -15.19478 22.66756 41061 ft 493 kts 157°
2026-05-04 03:10 -15.25767 22.69605 41067 ft 493 kts 157°
2026-05-04 03:11 -15.32057 22.72456 41059 ft 494 kts 157°
2026-05-04 03:11 -15.38350 22.75310 41057 ft 493 kts 157°
2026-05-04 03:12 -15.44637 22.78164 41066 ft 493 kts 157°
2026-05-04 03:12 -15.50926 22.81020 41065 ft 494 kts 157°
2026-05-04 03:13 -15.57174 22.83859 41062 ft 494 kts 157°
2026-05-04 03:13 -15.63463 22.86720 41073 ft 494 kts 157°
2026-05-04 03:14 -15.69808 22.89451 41066 ft 493 kts 159°
2026-05-04 03:14 -15.76202 22.92038 41060 ft 493 kts 160°
2026-05-04 03:15 -15.82593 22.94639 41078 ft 494 kts 159°
2026-05-04 03:15 -15.88982 22.97273 41069 ft 494 kts 159°
2026-05-04 03:16 -15.95367 22.99921 41073 ft 494 kts 159°
2026-05-04 03:16 -16.01748 23.02571 41084 ft 494 kts 159°
2026-05-04 03:17 -16.08131 23.05222 41076 ft 494 kts 159°
2026-05-04 03:17 -16.14473 23.07857 41076 ft 494 kts 159°
2026-05-04 03:18 -16.20856 23.10511 41081 ft 494 kts 159°
2026-05-04 03:18 -16.27244 23.13169 41083 ft 494 kts 159°
2026-05-04 03:19 -16.33631 23.15828 41080 ft 494 kts 159°
2026-05-04 03:19 -16.40020 23.18490 41089 ft 494 kts 160°
2026-05-04 03:20 -16.46411 23.21155 41083 ft 495 kts 160°
2026-05-04 03:20 -16.52806 23.23822 41084 ft 495 kts 160°
2026-05-04 03:21 -16.59205 23.26494 41087 ft 495 kts 160°
2026-05-04 03:21 -16.65601 23.29167 41089 ft 495 kts 160°
2026-05-04 03:22 -16.71997 23.31841 41091 ft 495 kts 160°
2026-05-04 03:22 -16.78401 23.34521 41091 ft 496 kts 160°
2026-05-04 03:23 -16.84811 23.37205 41088 ft 496 kts 160°
2026-05-04 03:23 -16.91221 23.39891 41095 ft 496 kts 160°
2026-05-04 03:24 -16.97630 23.42578 41091 ft 496 kts 160°
2026-05-04 03:24 -17.04035 23.45266 41091 ft 496 kts 160°
2026-05-04 03:25 -17.10401 23.47940 41094 ft 496 kts 160°
2026-05-04 03:25 -17.16813 23.50635 41091 ft 497 kts 160°
2026-05-04 03:26 -17.23224 23.53331 41092 ft 497 kts 160°
2026-05-04 03:26 -17.29635 23.56030 41094 ft 497 kts 160°
2026-05-04 03:27 -17.36045 23.58730 41093 ft 497 kts 160°
2026-05-04 03:27 -17.42454 23.61432 41095 ft 497 kts 160°
2026-05-04 03:28 -17.48865 23.64136 41094 ft 497 kts 160°
2026-05-04 03:28 -17.55271 23.66841 41093 ft 497 kts 160°
2026-05-04 03:29 -17.61653 23.69620 41101 ft 497 kts 158°
2026-05-04 03:29 -17.67911 23.72745 41094 ft 498 kts 156°
2026-05-04 03:30 -17.73095 23.75382 41091 ft 498 kts 157°
2026-05-04 03:30 -17.79447 23.78279 41097 ft 497 kts 160°
2026-05-04 03:31 -17.85844 23.81040 41102 ft 497 kts 160°
2026-05-04 03:31 -17.92234 23.83821 41102 ft 497 kts 160°
2026-05-04 03:32 -17.98634 23.86596 41097 ft 498 kts 160°
2026-05-04 03:32 -18.05039 23.89374 41099 ft 498 kts 160°
2026-05-04 03:33 -18.11443 23.92160 41101 ft 498 kts 160°
2026-05-04 03:33 -18.17844 23.94951 41099 ft 498 kts 160°
2026-05-04 03:34 -18.24248 23.97747 41103 ft 498 kts 160°
2026-05-04 03:34 -18.30651 24.00543 41102 ft 498 kts 160°
2026-05-04 03:35 -18.37048 24.03367 41099 ft 499 kts 159°
2026-05-04 03:35 -18.43405 24.06305 41099 ft 499 kts 158°
2026-05-04 03:36 -18.49754 24.09263 41102 ft 499 kts 159°
2026-05-04 03:36 -18.56106 24.12208 41102 ft 499 kts 159°
2026-05-04 03:37 -18.62417 24.15125 41103 ft 499 kts 159°
2026-05-04 03:37 -18.68779 24.18064 41102 ft 499 kts 159°
2026-05-04 03:38 -18.75135 24.21004 41104 ft 499 kts 159°
2026-05-04 03:38 -18.81492 24.23947 41108 ft 499 kts 159°
2026-05-04 03:39 -18.87857 24.26896 41108 ft 500 kts 159°
2026-05-04 03:39 -18.94244 24.29786 41106 ft 499 kts 161°
2026-05-04 03:40 -19.00717 24.32426 41109 ft 499 kts 162°
2026-05-04 03:40 -19.07201 24.35035 41108 ft 499 kts 161°
2026-05-04 03:41 -19.13670 24.37689 41108 ft 499 kts 161°
2026-05-04 03:41 -19.20089 24.40516 41108 ft 500 kts 159°
2026-05-04 03:42 -19.26479 24.43409 41116 ft 499 kts 159°
2026-05-04 03:42 -19.32872 24.46286 41105 ft 499 kts 160°
2026-05-04 03:43 -19.39271 24.49147 41111 ft 499 kts 160°
2026-05-04 03:43 -19.45676 24.52006 41105 ft 499 kts 160°
2026-05-04 03:44 -19.52074 24.54864 41105 ft 499 kts 160°
2026-05-04 03:44 -19.58476 24.57727 41105 ft 499 kts 160°
2026-05-04 03:45 -19.64877 24.60593 41101 ft 499 kts 160°
2026-05-04 03:45 -19.71280 24.63459 41103 ft 499 kts 160°
2026-05-04 03:46 -19.77693 24.66280 41105 ft 499 kts 160°
2026-05-04 03:46 -19.84114 24.69094 41105 ft 499 kts 160°
2026-05-04 03:47 -19.90533 24.71917 41105 ft 499 kts 160°
2026-05-04 03:47 -19.96949 24.74748 41112 ft 499 kts 160°
2026-05-04 03:48 -20.03363 24.77582 41105 ft 500 kts 161°
2026-05-04 03:48 -20.09741 24.80402 41104 ft 500 kts 161°
2026-05-04 03:49 -20.16160 24.83243 41105 ft 500 kts 161°
2026-05-04 03:49 -20.22619 24.85959 41101 ft 498 kts 163°
2026-05-04 03:50 -20.29163 24.88391 41101 ft 498 kts 164°
2026-05-04 03:50 -20.35708 24.90815 41099 ft 498 kts 164°
2026-05-04 03:51 -20.42242 24.93288 41099 ft 498 kts 163°
2026-05-04 03:51 -20.48685 24.96055 41095 ft 501 kts 158°
2026-05-04 03:52 -20.54981 24.99260 41102 ft 502 kts 158°
2026-05-04 03:52 -20.61280 25.02467 41094 ft 501 kts 158°
2026-05-04 03:53 -20.67602 25.05600 41092 ft 501 kts 159°
2026-05-04 03:53 -20.73938 25.08702 41091 ft 501 kts 159°
2026-05-04 03:54 -20.80272 25.11799 41093 ft 501 kts 159°
2026-05-04 03:54 -20.86606 25.14901 41095 ft 501 kts 159°
2026-05-04 03:55 -20.92948 25.18014 41097 ft 502 kts 159°
2026-05-04 03:55 -20.99292 25.21130 41105 ft 502 kts 159°
2026-05-04 03:56 -21.05680 25.24106 41103 ft 500 kts 162°
2026-05-04 03:56 -21.12175 25.26759 41111 ft 500 kts 163°
2026-05-04 03:57 -21.18679 25.29403 41114 ft 500 kts 163°
2026-05-04 03:57 -21.25127 25.32086 41115 ft 501 kts 162°
2026-05-04 03:58 -21.34839 25.36181 41124 ft 499 kts 162°
2026-05-04 03:58 -21.41301 25.38912 41122 ft 499 kts 162°
2026-05-04 03:59 -21.47767 25.41645 41132 ft 500 kts 162°
2026-05-04 03:59 -21.54234 25.44380 41128 ft 500 kts 162°
2026-05-04 04:00 -21.60701 25.47117 41139 ft 500 kts 162°
2026-05-04 04:00 -21.67134 25.49983 41148 ft 501 kts 161°
2026-05-04 04:01 -21.73539 25.52956 41144 ft 502 kts 160°
2026-05-04 04:01 -21.79955 25.55924 41141 ft 502 kts 161°
2026-05-04 04:02 -21.86381 25.58875 41139 ft 502 kts 161°
2026-05-04 04:02 -21.92807 25.61819 41139 ft 502 kts 161°
2026-05-04 04:03 -21.99236 25.64767 41144 ft 502 kts 161°
2026-05-04 04:03 -22.05663 25.67717 41145 ft 502 kts 161°
2026-05-04 04:04 -22.12037 25.70647 41146 ft 501 kts 161°
2026-05-04 04:04 -22.18453 25.73599 41146 ft 501 kts 161°
2026-05-04 04:05 -22.24870 25.76554 41153 ft 502 kts 161°
2026-05-04 04:05 -22.31296 25.79516 41153 ft 502 kts 161°
2026-05-04 04:06 -22.37726 25.82483 41155 ft 502 kts 161°
2026-05-04 04:06 -22.44153 25.85452 41156 ft 502 kts 161°
2026-05-04 04:07 -22.50578 25.88423 41166 ft 503 kts 161°
2026-05-04 04:07 -22.57022 25.91405 41163 ft 504 kts 161°
2026-05-04 04:08 -22.63469 25.94392 41163 ft 504 kts 161°
2026-05-04 04:08 -22.69917 25.97383 41165 ft 503 kts 161°
2026-05-04 04:09 -22.76348 26.00369 41179 ft 503 kts 161°
2026-05-04 04:09 -22.82783 26.03360 41161 ft 503 kts 161°
2026-05-04 04:10 -22.89180 26.06336 41163 ft 504 kts 161°
2026-05-04 04:10 -22.95617 26.09333 41158 ft 504 kts 161°
2026-05-04 04:11 -23.02057 26.12336 41174 ft 504 kts 161°
2026-05-04 04:11 -23.08496 26.15341 41174 ft 504 kts 161°
2026-05-04 04:12 -23.14933 26.18348 41175 ft 504 kts 161°
2026-05-04 04:12 -23.21370 26.21359 41174 ft 504 kts 161°
2026-05-04 04:13 -23.27810 26.24374 41165 ft 504 kts 161°
2026-05-04 04:13 -23.34247 26.27390 41171 ft 504 kts 161°
2026-05-04 04:14 -23.40683 26.30410 41172 ft 503 kts 161°
2026-05-04 04:14 -23.47112 26.33429 41174 ft 503 kts 161°
2026-05-04 04:15 -23.53543 26.36453 41179 ft 503 kts 161°
2026-05-04 04:15 -23.59974 26.39480 41179 ft 504 kts 161°
2026-05-04 04:16 -23.66413 26.42513 41183 ft 504 kts 161°
2026-05-04 04:16 -23.72078 26.45185 41182 ft 504 kts 161°
2026-05-04 04:17 -23.78522 26.48210 41185 ft 504 kts 161°
2026-05-04 04:17 -23.83880 26.50720 41190 ft 504 kts 161°
2026-05-04 04:18 -23.90329 26.53744 41186 ft 505 kts 161°
2026-05-04 04:18 -23.96781 26.56776 41179 ft 505 kts 161°
2026-05-04 04:19 -24.03230 26.59811 41188 ft 504 kts 161°
2026-05-04 04:19 -24.09667 26.62845 41196 ft 504 kts 161°
2026-05-04 04:20 -24.16106 26.65882 41187 ft 504 kts 161°
2026-05-04 04:20 -24.22549 26.68924 41187 ft 504 kts 161°
2026-05-04 04:21 -24.28927 26.71972 40508 ft 504 kts 159°
2026-05-04 04:21 -24.31979 26.73880 39929 ft 508 kts 150°
2026-05-04 04:21 -24.34798 26.76238 39341 ft 511 kts 145°
2026-05-04 04:22 -24.37526 26.78741 38651 ft 512 kts 144°
2026-05-04 04:22 -24.40384 26.81048 37859 ft 508 kts 153°
2026-05-04 04:22 -24.43401 26.83054 37123 ft 507 kts 155°
2026-05-04 04:22 -24.46475 26.84940 36393 ft 506 kts 156°
2026-05-04 04:23 -24.49584 26.86764 35677 ft 507 kts 156°
2026-05-04 04:23 -24.52712 26.88565 35191 ft 509 kts 156°
2026-05-04 04:23 -24.55857 26.90372 34814 ft 510 kts 156°
2026-05-04 04:23 -24.58997 26.92187 34428 ft 509 kts 156°
2026-05-04 04:24 -24.62117 26.94002 34034 ft 506 kts 156°
2026-05-04 04:24 -24.65218 26.95815 33606 ft 504 kts 155°
2026-05-04 04:24 -24.68300 26.97624 33175 ft 500 kts 155°
2026-05-04 04:24 -24.71319 26.99400 32755 ft 497 kts 155°
2026-05-04 04:25 -24.74354 27.01186 32341 ft 493 kts 155°
2026-05-04 04:25 -24.77368 27.02962 31938 ft 490 kts 155°
2026-05-04 04:25 -24.80360 27.04724 31530 ft 486 kts 155°
2026-05-04 04:25 -24.83331 27.06475 31131 ft 483 kts 155°
2026-05-04 04:26 -24.86286 27.08216 30762 ft 480 kts 154°
2026-05-04 04:26 -24.89224 27.09948 30361 ft 478 kts 154°
2026-05-04 04:26 -24.92144 27.11671 29922 ft 475 kts 154°
2026-05-04 04:26 -24.95048 27.13385 29472 ft 472 kts 154°
2026-05-04 04:27 -24.97934 27.15091 29016 ft 469 kts 154°
2026-05-04 04:27 -25.00801 27.16785 28579 ft 466 kts 154°
2026-05-04 04:27 -25.03650 27.18469 28141 ft 463 kts 154°
2026-05-04 04:27 -25.06481 27.20145 27720 ft 460 kts 154°
2026-05-04 04:28 -25.09292 27.21809 27299 ft 457 kts 154°
2026-05-04 04:28 -25.12090 27.23465 26892 ft 455 kts 154°
2026-05-04 04:28 -25.14874 27.25114 26487 ft 453 kts 153°
2026-05-04 04:28 -25.17641 27.26755 26086 ft 451 kts 153°
2026-05-04 04:29 -25.20397 27.28389 25715 ft 449 kts 153°
2026-05-04 04:29 -25.23140 27.30017 25368 ft 447 kts 153°
2026-05-04 04:29 -25.25870 27.31638 25034 ft 445 kts 153°
2026-05-04 04:29 -25.28591 27.33254 24694 ft 443 kts 153°
2026-05-04 04:30 -25.31300 27.34864 24353 ft 441 kts 153°
2026-05-04 04:30 -25.33994 27.36466 24022 ft 439 kts 153°
2026-05-04 04:30 -25.36645 27.38044 23699 ft 439 kts 153°
2026-05-04 04:30 -25.39330 27.39643 23306 ft 438 kts 153°
2026-05-04 04:31 -25.42007 27.41237 22910 ft 436 kts 153°
2026-05-04 04:31 -25.44666 27.42822 22534 ft 433 kts 153°
2026-05-04 04:31 -25.47308 27.44397 22161 ft 430 kts 153°
2026-05-04 04:31 -25.49937 27.45965 21776 ft 428 kts 153°
2026-05-04 04:32 -25.52548 27.47523 21399 ft 425 kts 153°
2026-05-04 04:32 -25.55141 27.49071 21047 ft 422 kts 153°
2026-05-04 04:32 -25.57716 27.50609 20679 ft 419 kts 153°
2026-05-04 04:32 -25.60272 27.52137 20323 ft 416 kts 153°
2026-05-04 04:33 -25.62813 27.53657 19971 ft 414 kts 153°
2026-05-04 04:33 -25.65336 27.55166 19632 ft 412 kts 152°
2026-05-04 04:33 -25.67851 27.56671 19282 ft 409 kts 152°
2026-05-04 04:33 -25.70349 27.58167 18948 ft 407 kts 152°
2026-05-04 04:34 -25.72834 27.59656 18606 ft 405 kts 152°
2026-05-04 04:34 -25.75308 27.61139 18237 ft 403 kts 152°
2026-05-04 04:34 -25.77763 27.62611 17846 ft 400 kts 152°
2026-05-04 04:34 -25.80204 27.64076 17468 ft 397 kts 152°
2026-05-04 04:35 -25.82622 27.65526 17100 ft 394 kts 152°
2026-05-04 04:35 -25.85021 27.66967 16732 ft 391 kts 152°
2026-05-04 04:35 -25.87401 27.68397 16371 ft 387 kts 152°
2026-05-04 04:35 -25.89758 27.69814 16014 ft 384 kts 152°
2026-05-04 04:36 -25.92098 27.71221 15646 ft 381 kts 152°
2026-05-04 04:36 -25.94418 27.72617 15301 ft 378 kts 152°
2026-05-04 04:36 -25.96722 27.74004 14958 ft 375 kts 152°
2026-05-04 04:36 -25.99004 27.75379 14678 ft 372 kts 152°
2026-05-04 04:37 -26.05773 27.79458 13962 ft 366 kts 151°
2026-05-04 04:37 -26.08006 27.80806 13714 ft 364 kts 152°
2026-05-04 04:38 -26.10230 27.82150 13448 ft 363 kts 152°
2026-05-04 04:38 -26.12444 27.83487 13187 ft 362 kts 152°
2026-05-04 04:38 -26.14643 27.84816 12936 ft 352 kts 152°
2026-05-04 04:38 -26.16717 27.86070 12674 ft 327 kts 152°
2026-05-04 04:39 -26.18653 27.87244 12417 ft 308 kts 152°
2026-05-04 04:39 -26.20521 27.88374 12165 ft 305 kts 152°
2026-05-04 04:39 -26.22386 27.89502 11944 ft 304 kts 152°
2026-05-04 04:39 -26.24236 27.90621 11692 ft 302 kts 153°
2026-05-04 04:40 -26.26030 27.91758 11448 ft 301 kts 149°
2026-05-04 04:40 -26.27743 27.93098 11212 ft 301 kts 142°
2026-05-04 04:40 -26.29292 27.94663 10977 ft 301 kts 134°
2026-05-04 04:40 -26.30633 27.96447 10738 ft 300 kts 127°
2026-05-04 04:41 -26.31837 27.98351 10512 ft 301 kts 125°
2026-05-04 04:41 -26.32981 28.00307 10300 ft 302 kts 123°
2026-05-04 04:41 -26.34079 28.02308 10097 ft 303 kts 120°
2026-05-04 04:41 -26.34939 28.04446 9898 ft 303 kts 109°
2026-05-04 04:42 -26.35433 28.06717 9701 ft 301 kts 97°
2026-05-04 04:42 -26.35490 28.09028 9480 ft 295 kts 83°
2026-05-04 04:42 -26.35187 28.11251 9282 ft 285 kts 77°
2026-05-04 04:42 -26.34799 28.13375 9127 ft 274 kts 76°
2026-05-04 04:43 -26.34308 28.15362 9064 ft 258 kts 66°
2026-05-04 04:43 -26.33665 28.17169 9005 ft 244 kts 66°
2026-05-04 04:43 -26.32937 28.18822 8791 ft 231 kts 43°
2026-05-04 04:43 -26.31752 28.19911 8611 ft 215 kts 30°
2026-05-04 04:44 -26.30409 28.20540 8305 ft 207 kts
2026-05-04 04:44 -26.29032 28.20870 7976 ft 205 kts
2026-05-04 04:44 -26.27656 28.21332 7679 ft 202 kts 13°
2026-05-04 04:44 -26.26323 28.21754 7429 ft 197 kts 11°
2026-05-04 04:45 -26.25048 28.22142 7185 ft 188 kts 12°
2026-05-04 04:45 -26.23820 28.22529 6948 ft 174 kts 12°
2026-05-04 04:45 -26.22709 28.22874 6742 ft 162 kts 12°
2026-05-04 04:47 -26.16706 28.24740 5612 ft 152 kts 14°
2026-05-04 04:47 -26.15714 28.25047 5523 ft 141 kts 14°
2026-05-04 04:47 -26.15011 28.25267 5515 ft 55 kts 15°
2026-05-04 04:47 -26.14704 28.25324 5510 ft 31 kts 354°
2026-05-04 04:48 -26.14524 28.25262 5515 ft 25 kts 320°
2026-05-04 04:49 -26.14177 28.24890 5543 ft 15 kts 315°
2026-05-04 04:49 -26.14100 28.24805 5548 ft 16 kts 316°
2026-05-04 04:49 -26.14017 28.24716 5543 ft 17 kts 315°
2026-05-04 04:49 -26.13930 28.24622 5540 ft 18 kts 315°
2026-05-04 04:50 -26.13839 28.24521 5545 ft 18 kts 316°
2026-05-04 04:50 -26.13756 28.24435 5551 ft 15 kts 316°
2026-05-04 04:50 -26.13678 28.24349 5551 ft 16 kts 315°
2026-05-04 04:50 -26.13595 28.24258 5551 ft 17 kts 316°
2026-05-04 04:51 -26.13506 28.24162 5552 ft 18 kts 316°
2026-05-04 04:51 -26.13429 28.24079 5558 ft 13 kts 315°
2026-05-04 04:51 -26.13364 28.24008 5559 ft 14 kts 316°
2026-05-04 04:51 -26.13290 28.23925 5557 ft 17 kts 314°
2026-05-04 04:52 -26.13200 28.23826 5557 ft 19 kts 316°
2026-05-04 04:52 -26.13142 28.23726 5553 ft 15 kts 282°
2026-05-04 04:52 -26.13130 28.23630 5553 ft 10 kts 276°
2026-05-04 04:52 -26.13121 28.23546 5556 ft 11 kts 276°
2026-05-04 04:53 -26.13111 28.23459 5553 ft 12 kts 278°
2026-05-04 04:53 -26.13103 28.23395 5555 ft 3 kts 277°
2026-05-04 04:53 -26.13100 28.23371 5555 ft 4 kts 276°
2026-05-04 04:53 -26.13097 28.23347 5556 ft 0 kts 277°
2026-05-04 04:54 -26.13097 28.23346 5556 ft 0 kts 277°
2026-05-04 04:54 -26.13096 28.23337 5557 ft 1 kts 277°
2026-05-04 04:54 -26.13096 28.23333 5557 ft 0 kts 277°